Regional Weather Roundup
Issued by NWS

Home | Current Version | Previous Version | Graphics & Text | Print | Product List | Glossary On
Versions: 1 2 3 4 5 6 7 8 9 10 11 12 13 14 15 16 17 18 19 20 21 22 23 24 25 26 27 28 29 30 31 32 33 34 35 36 37 38 39 40 41 42 43 44 45 46 47 48 49 50
000
ASUS43 KFSD 102010
RWRSD

WEATHER ROUNDUP FOR SOUTH DAKOTA
NATIONAL WEATHER SERVICE SIOUX FALLS SD
200 PM CST SUN DEC 10 2017

NOTE: "FAIR" INDICATES FEW OR NO CLOUDS BELOW 12,000 FEET WITH NO
SIGNIFICANT WEATHER AND/OR OBSTRUCTIONS TO VISIBILITY.


SDZ001>005-009-010-012>017-102100-
NORTHWEST AND NORTH CENTRAL SOUTH DAKOTA

CITY           SKY/WX    TMP DP  RH WIND       PRES   REMARKS
BUFFALO          N/A     53  18  25 W24       30.06F
FAITH            N/A     54  17  23 W23       30.09F
MOBRIDGE       CLOUDY    47  27  45 NW10      30.03F
$$

SDZ012>016-024>037-041>051-057-063-072>074-102100-
SOUTHWEST AND SOUTH CENTRAL SOUTH DAKOTA

CITY           SKY/WX    TMP DP  RH WIND       PRES   REMARKS
RAPID CTY ARPT SUNNY     63   4   9 NW21      30.16F
PIERRE         SUNNY     55  20  25 NW14      30.06F
CUSTER         SUNNY     51   0  12 NW14G25   30.23F
ELLSWORTH AFB  SUNNY     63   3   9 NW25G32   30.14F
PHILIP         SUNNY     62  11  13 NW22G31   30.10F
PINE RIDGE     SUNNY     54  16  22 W8G18     30.22F
SPEARFISH      FAIR      55   9  15 W18       30.19F
WINNER         FAIR      61  17  18 NW20G25   30.10F
$$

SDZ004>011-016>023-039-040-102100-
NORTHEAST SOUTH DAKOTA

CITY           SKY/WX    TMP DP  RH WIND       PRES   REMARKS
ABERDEEN       MOSUNNY   44  26  49 W7        30.03F
WATERTOWN      CLOUDY    38  29  70 NW10      30.00F
BROOKINGS      CLOUDY    39  28  64 NW12      30.03F
SISSETON         N/A     39  26  59 N8        30.02F
$$

SDZ017-020-022-023-036>040-048>070-102100-
SOUTHEAST SOUTH DAKOTA

CITY           SKY/WX    TMP DP  RH WIND       PRES   REMARKS
SIOUX FALLS    MOSUNNY   42  30  62 NW10      30.06S
HURON          SUNNY     46  29  51 NW10      30.05F
CHAMBERLAIN    SUNNY     55  23  29 NW9       30.09F
MITCHELL       SUNNY     47  29  49 NW10      30.08F
YANKTON        SUNNY     47  25  42 NW18      30.09F
$$

ABBREVIATIONS USED IN REMARKS
   TC - TEMPERATURE IN CELSIUS
  WCI - WIND CHILL INDEX
   HX - HEAT INDEX
  VSB - VISIBILITY




USA.gov is the U.S. government's official web portal to all federal, state and local government web resources and services.